Safford, AZ

6:58 PM MST on June 25, 2017 (GMT -0700)
Safford Regional

Weather History for KSAD - January, 2013

Change the Weather History Date:

Sunday, January 6, 2013

  Actual Average Record
Temperature  
Mean Temperature 44 °F -  
Max Temperature 55 °F 57 °F 70 °F (1954)
Min Temperature 32 °F 28 °F 9 °F (1950)
Degree Days  
Heating Degree Days 22    
Moisture  
Dew Point 19 °F    
Average Humidity 43    
Maximum Humidity 69    
Minimum Humidity 21    
Precipitation  
Precipitation 0.00 in - - ()
Sea Level Pressure  
Sea Level Pressure 30.18 in    
Wind  
Wind Speed 12 mph (SE)    
Max Wind Speed 17 mph    
Max Gust Speed 22 mph    
Visibility 10 miles    
Events      
Averages and records for this station are not official NWS values.
T = Trace of Precipitation, MM = Missing Value Source: NWS Daily Summary

Daily Weather History Graph

Daily Weather History Graph

Search for Another Location

Airport or City:

Trip Planner

Search our weather history database for the weather conditions in past years. The results will help you decide how hot, cold, wet, or windy it might be!

Date:

Astronomy

Jan. 06, 2013 Rise Set
Actual Time 7:21 AM MST 5:27 PM MST
Civil Twilight 6:54 AM MST 5:54 PM MST
Nautical Twilight 6:24 AM MST 6:25 PM MST
Astronomical Twilight 5:54 AM MST 6:55 PM MST
Moon 1:47 AM MST (1/6) 12:51 PM MST (1/6)
Length of Visible Light 10h 59m
Length of Day
10h 05m
Waning Crescent, 32% of the Moon is Illuminated
Jan 6
Waning Crescent
Jan 11
New
Jan 18
First Quarter
Jan 26
Full
Feb 3
Last Quarter

Hourly Weather History & Observations

Time (MST) Temp. Windchill Dew Point Humidity Pressure Visibility Wind Dir Wind Speed Gust Speed Precip Events Conditions
12:51 AM 36.0 °F 28.0 °F 23.0 °F 59% 30.29 in 10.0 mi SE 11.5 mph - N/A   Clear
1:51 AM 35.1 °F 25.9 °F 23.0 °F 61% 30.28 in 10.0 mi SE 13.8 mph - N/A   Clear
2:51 AM 34.0 °F 25.5 °F 24.1 °F 67% 30.28 in 10.0 mi SE 11.5 mph - N/A   Clear
3:51 AM 34.0 °F 24.6 °F 23.0 °F 64% 30.28 in 10.0 mi SE 13.8 mph - N/A   Clear
4:51 AM 32.0 °F 23.0 °F 23.0 °F 69% 30.29 in 10.0 mi SSE 11.5 mph - N/A   Clear
5:51 AM 33.1 °F 23.9 °F 23.0 °F 66% 30.30 in 10.0 mi SE 12.7 mph - N/A   Clear
6:51 AM 34.0 °F 24.6 °F 21.9 °F 61% 30.31 in 10.0 mi ESE 13.8 mph - N/A   Clear
7:51 AM 34.0 °F 24.6 °F 21.0 °F 59% 30.32 in 10.0 mi ESE 13.8 mph - N/A   Clear
8:51 AM 37.0 °F 27.7 °F 21.9 °F 54% 30.32 in 10.0 mi East 16.1 mph - N/A   Clear
9:51 AM 42.1 °F 34.9 °F 21.0 °F 43% 30.32 in 10.0 mi ESE 13.8 mph - N/A   Clear
10:51 AM 46.0 °F 40.6 °F 18.0 °F 33% 30.27 in 10.0 mi ESE 11.5 mph - N/A   Clear
11:51 AM 48.9 °F - 19.0 °F 31% 30.22 in 10.0 mi South 9.2 mph - N/A   Clear
12:51 PM 50.0 °F - 17.1 °F 27% 30.16 in 10.0 mi SE 11.5 mph - N/A   Clear
1:51 PM 54.0 °F - 17.1 °F 23% 30.11 in 10.0 mi ESE 10.4 mph - N/A   Clear
2:51 PM 55.0 °F - 15.1 °F 21% 30.09 in 10.0 mi South 17.3 mph 21.9 mph N/A   Clear
3:51 PM 54.0 °F - 15.1 °F 22% 30.07 in 10.0 mi SSE 13.8 mph - N/A   Clear
4:51 PM 52.0 °F - 15.1 °F 23% 30.06 in 10.0 mi SSE 11.5 mph - N/A   Clear
5:51 PM 50.0 °F - 16.0 °F 26% 30.05 in 10.0 mi SSE 12.7 mph - N/A   Clear
6:51 PM 46.9 °F - 16.0 °F 29% 30.07 in 10.0 mi SSE 8.1 mph - N/A   Clear
7:51 PM 45.0 °F 40.6 °F 15.1 °F 30% 30.06 in 10.0 mi SE 8.1 mph - N/A   Clear
8:51 PM 44.1 °F 38.6 °F 15.1 °F 31% 30.04 in 10.0 mi SE 10.4 mph - N/A   Clear
9:51 PM 41.0 °F 34.7 °F 16.0 °F 36% 30.02 in 10.0 mi ESE 10.4 mph - N/A   Clear
10:51 PM 39.9 °F 34.5 °F 17.1 °F 40% 30.01 in 10.0 mi SE 8.1 mph - N/A   Clear
11:51 PM 37.9 °F 32.1 °F 18.0 °F 45% 30.00 in 10.0 mi ESE 8.1 mph - N/A   Clear